Regional Weather Roundup
Issued by NWS Charleston, SC

Current Version | Previous Version | Graphics & Text | Print | Product List | Glossary On
Versions: 1 2 3 4 5 6 7 8 9 10 11 12 13 14 15 16 17 18 19 20 21 22 23 24 25 26 27 28 29 30 31 32 33 34 35 36 37 38 39 40 41 42 43 44 45 46 47 48 49 50
000
ASUS42 KCHS 050112
RWRCHS

REGIONAL WEATHER ROUNDUP
NATIONAL WEATHER SERVICE CHARLESTON SC
900 PM EDT MON MAY 04 2015

NOTE: "FAIR" INDICATES FEW OR NO CLOUDS BELOW 12,000 FEET WITH NO
SIGNIFICANT WEATHER AND/OR OBSTRUCTIONS TO VISIBILITY.

NOT ALL STATIONS ARE QUALITY CONTROLLED BY THE NATIONAL
WEATHER SERVICE. USE DATA WITH CAUTION...ESPECIALLY
DEWPOINT OBSERVATIONS.

SCZ027-030-031-034>040-042>050-050200-
...SOUTHEAST SOUTH CAROLINA...

CITY           SKY/WX    TMP DP  RH WIND       PRES   REMARKS
N CHARLESTON   PTCLDY    69  53  56 E6        30.31R
WATERFRONT PRK   N/A     72 N/A N/A E8          N/A
MOUNT PLEASANT FAIR      64  57  77 MISG      30.32R
PINOPOLIS      NOT AVBL
MONCKS CORNER  FAIR      68  55  64 CALM      30.31R
SUMMERVILLE    FAIR      68  55  64 SE3       30.31S
BEAUFORT MCAS  CLEAR     70  59  68 E6        30.30R
BEAUFORT ARPT  FAIR      68  61  77 CALM      30.29S
HILTON HEAD IS CLEAR     70  61  73 E5        30.30S
WALTERBORO     CLEAR     64  54  68 SE5       30.31R
ALLENDALE      FAIR      68  55  64 SE5       30.29R

...SOUTHERN MIDLANDS AND PEE DEE...

CITY           SKY/WX    TMP DP  RH WIND       PRES   REMARKS
GEORGETOWN     NOT AVBL
KINGSTREE      NOT AVBL
ORANGEBURG     CLEAR     68  55  63 S3        30.29R
BARNWELL       FAIR      70  57  64 SE7       30.30R
AIKEN          FAIR      68  52  56 SE6       30.32R
MANNING        FAIR      66  52  59 CALM      30.31R
COLUMBIA       PTCLDY    73  55  53 S8        30.28R
SUMTER         CLEAR     71  55  56 S6        30.27R
FLORENCE       CLEAR     70  54  56 S10       30.30R
MYRTLE BEACH   CLEAR     72  57  60 SE12      30.33R
N MYRTLE BEACH CLEAR     70  60  70 SE5       30.31R

$$

GAZ063-065-086>088-099>101-113>116-118-119-134>141-150-050200-
...SOUTHEAST GEORGIA...

CITY           SKY/WX    TMP DP  RH WIND       PRES   REMARKS
SAVANNAH ARPT  PTCLDY    69  56  62 E6        30.29R
HUNTER AAF     NOT AVBL
FORT STEWART   CLEAR     67  56  69 E5        30.27R
STATESBORO       N/A     69  56  64 SE3       30.29R
SYLVANIA       CLEAR     67  58  72 CALM      30.30R
CLAXTON        FAIR      66  59  77 CALM      30.28R

...CSRA...CENTRAL AND FAR SOUTHEAST GEORGIA...

CITY           SKY/WX    TMP DP  RH WIND       PRES   REMARKS
THOMSON        PTCLDY    74  61  63 SE5       30.31R
AUGUSTA-BUSH   CLEAR     67  57  70 SE6       30.27R
AUGUSTA-DANIEL CLEAR     73  56  54 SE6       30.28R
SWAINSBORO     NOT AVBL
VIDALIA        CLEAR     70  57  64 SE3       30.28R
EASTMAN        FAIR      72  58  61 SE5       30.29R
HAZLEHURST     FAIR      72  56  57 SE3       30.26R
ALMA           CLEAR     69  54  58 E5        30.27R
WAYCROSS       CLEAR     71  57  60 E6        30.27R
JESUP          FAIR      70  59  68 E3        30.28R
BAXLEY         FAIR      72  55  56 CALM      30.27R
BRUNSWICK      CLEAR     66  57  72 CALM      30.28R
SAINT SIMONS   CLEAR     71  58  63 E9        30.27R

$$

SCZ027-028-034-036>038-045-046-048>050-GAZ119-141-050200-
...LAKE AND SUPPLEMENTAL COASTAL OBSERVATIONS...

STATION/POSITION TIME  TEMP    WIND        PRES    WAVE   SWELL
                       AIR SEA DIR/SP/G            HT/PER HT/PER/DIR
                 (UTC) (F)     (DEG/KT/KT) (MB)    (FT/S) (FT/S/D)
UPR LAKE MARION  NOT AVBL
WINYAH BAY       NOT AVBL
LAKE MURRAY      0000   77     160/ 10/ 12 1023.7R
ACE BASIN NERRS  NOT AVBL
FORT PULASKI     0000   71 71   60/  9/ 11 1026.0R
SAPELO ISLAND    0000   71      60/  5     1025.0R

$$

ANZ835-935-AMZ111-154-330-350-352-354-370-450-454-472-050200-
...C-MAN AND BUOY OBSERVATIONS...

STATION/POSITION TIME  TEMP    WIND        PRES    WAVE   SWELL
                       AIR SEA DIR/SP/G            HT/PER HT/PER/DIR
                 (UTC) (F)     (DEG/KT/KT) (MB)    (FT/S) (FT/S/D)
BUOY 41004       0050   73 74  110/ 16/ 17 1025.6R   4/10   2/10
BUOY 41008       0050   71 70  110/  6/  8 1025.2R   3/11   3/ 70/11
FOLLY BEACH CMAN 0000   71      80/  7/  8 1025.8S
CAPERS NEARSHORE 0008   72     100/ 10/ 12 1025.9R
FRIPP NEARSHORE  0000   71      80/ 10/ 12 1024.5R


STATION/POSITION TIME  TEMP    WIND        PRES    WAVE   SWELL
                       AIR SEA DIR/SP/G            HT/PER HT/PER/DIR
                 (UTC) (F)     (DEG/KT/KT) (MB)    (FT/S) (FT/S/D)
5E ST. MARYS GA  0021      72                N/A     3/ 5
FRYING PAN BUOY  0050   74 72  130/ 10/ 14 1027.7R   3/10   2/ 60/10
BUOY 41025       0050   74 78  200/ 12/ 16 1027.2R   3/10   3/ 70/10
CAPE LOOKOUT NC  0000   69     170/  8/  8 1026.5R
BUOY 41002       0050   69 70  100/ 16/ 17 1027.1R   5/11   3/ 50/11
BUOY 41010       0020   74 78   80/ 16/ 19 1022.9R
ST AUGUSTINE FL  0100   72 72  100/ 10/ 11 1024.6R


$$



USA.gov is the U.S. government's official web portal to all federal, state and local government web resources and services.